Theta_e
319 319 320 320 320 320 321 321 322 322 323 323 323 323 323 323 321 311 302 312 311 333 332 310 309 308 307 304 301 295 290 287 289 293 295 298 302 304 305 305 308 309 308 315 343
318 319 319 319 320 320 320 321 321 322 322 323 323 323 323 323 309 304 318 332 332 337 308 307 306 307 301 299 298 294 289 291 297 298 293 296 300 300 302 304 304 308 321 341 338
318 318 318 318 319 320 320 320 321 322 322 322 322 323 322 320 299 300 328 333 336 331 312 309 307 304 296 296 296 292 292 297 299 299 300 298 298 299 300 299 304 306 312 337 336
317 317 318 318 318 319 319 320 321 322 321 321 322 323 323 308 289 304 334 338 339 326 312 307 302 298 295 294 295 297 297 299 300 300 298 297 300 300 299 300 308 308 311 325 338
316 317 317 317 318 318 319 319 319 320 320 321 322 323 310 304 301 312 336 324 311 312 306 303 301 297 295 296 296 295 297 298 299 296 297 301 299 298 298 305 306 307 308 311 311
316 316 316 316 317 318 318 317 317 318 319 321 323 323 307 297 311 312 310 311 309 306 306 304 303 300 297 296 295 297 297 296 297 296 297 298 299 300 301 304 305 305 305 305 308
316 315 316 316 317 317 317 317 316 317 320 323 324 316 307 305 314 311 308 306 308 308 306 305 304 304 300 297 300 298 296 298 297 297 296 300 297 299 303 304 303 304 303 304 304
316 315 315 316 317 317 317 317 317 319 322 324 324 310 303 313 313 310 309 309 310 310 308 307 306 302 299 300 300 297 294 290 297 298 299 298 291 299 302 302 302 301 302 304 304
316 315 315 316 316 317 316 316 318 321 324 324 309 305 302 316 309 312 308 308 310 310 310 313 305 300 302 295 293 292 289 290 295 299 298 296 292 299 302 301 300 301 300 302 302
316 315 315 315 316 316 314 316 318 318 317 318 311 300 307 306 309 311 311 311 308 308 306 305 299 296 294 292 288 288 288 290 290 296 297 294 294 298 300 301 300 301 300 301 302
315 315 314 315 315 314 309 308 306 305 304 300 302 304 308 313 312 308 311 310 308 304 298 300 295 292 295 294 294 294 291 291 293 296 294 292 292 295 300 302 302 302 303 303 299
314 314 316 315 314 313 308 305 308 306 301 308 307 307 311 311 304 308 312 304 302 296 299 296 292 298 301 298 296 294 291 290 293 296 293 292 292 297 300 300 302 303 303 304 307
313 313 314 315 314 308 305 309 311 307 299 306 309 308 309 307 304 306 308 305 300 298 297 293 296 303 300 296 295 292 291 291 291 294 294 292 289 293 299 301 304 303 304 306 305
312 313 313 313 310 308 309 314 307 309 296 301 305 308 307 305 304 311 310 306 301 297 298 296 301 300 296 295 295 289 295 295 294 290 285 291 282 289 294 296 300 301 301 302 305
312 313 312 313 304 307 312 310 309 310 289 305 302 308 304 303 305 308 313 307 299 299 299 296 296 296 295 296 297 293 297 294 294 288 285 288 284 287 293 293 295 300 303 302 303
312 312 311 310 307 309 312 307 311 298 291 299 302 300 299 301 305 308 307 308 306 300 299 297 301 298 297 300 299 298 293 290 288 285 280 286 285 284 289 292 295 299 303 304 304
311 311 308 312 307 310 311 306 297 292 304 299 298 300 298 299 301 304 302 299 295 292 291 296 296 300 301 295 296 293 286 278 279 278 279 287 285 286 293 296 297 299 301 303 304
309 309 307 313 309 312 308 301 291 300 298 304 302 300 298 301 301 302 299 295 299 296 291 289 289 296 299 295 291 289 286 280 277 276 281 287 283 287 296 298 300 301 301 301 303
307 311 312 313 315 313 305 293 294 298 302 302 301 296 296 301 300 299 297 297 299 297 290 288 290 297 298 298 295 291 286 288 283 282 279 283 287 293 296 297 297 298 300 299 300
306 310 312 316 314 313 302 298 298 305 305 302 295 298 293 296 296 295 296 302 299 301 298 293 286 294 299 297 296 293 294 284 282 277 277 282 284 285 290 292 294 294 296 296 298
310 308 314 311 312 305 300 300 300 305 306 301 297 296 296 295 295 294 297 301 303 300 298 292 288 289 293 290 288 289 287 287 285 283 278 277 281 291 290 291 293 294 295 295 295
303 301 310 309 300 299 297 302 303 304 304 302 301 299 296 296 294 294 296 299 303 300 293 293 288 284 288 293 295 293 289 287 279 280 283 281 282 294 294 295 294 295 295 296 296
299 301 311 307 294 294 298 303 303 302 300 300 299 301 298 294 289 295 298 303 303 299 294 292 283 276 282 287 292 291 292 290 286 283 281 276 281 295 295 294 295 294 295 295 296
302 297 300 301 298 296 294 298 298 303 302 300 298 300 296 293 294 292 294 301 303 304 305 297 285 284 280 284 289 288 291 291 287 276 281 283 286 291 292 293 294 295 295 295 297
298 296 296 293 296 296 295 297 298 297 299 299 295 296 295 289 290 291 295 296 300 304 297 292 286 287 289 291 293 291 291 291 288 288 283 285 287 291 292 292 294 295 295 297 298
295 294 296 295 298 296 295 294 295 297 296 296 293 296 294 289 292 289 292 291 291 294 292 291 284 288 288 293 293 291 292 292 291 291 289 290 288 292 294 294 295 296 297 297 297
296 295 298 296 295 293 294 294 296 297 298 298 296 293 292 295 297 297 296 295 294 292 289 288 287 285 283 290 289 283 289 290 291 292 290 283 287 292 293 294 295 296 297 296 297
Wind_Speed
8 8 8 7 7 7 8 8 8 9 9 11 12 12 12 12 12 0 2 6 3 4 2 6 4 5 4 1 3 4 6 2 2 2 4 4 4 1 3 4 3 6 6 6 23
9 8 7 7 7 7 7 8 9 9 10 11 12 13 12 11 3 3 9 6 5 1 4 6 7 7 4 2 2 6 4 6 3 6 1 3 4 2 4 2 4 11 12 18 21
9 9 8 8 8 7 8 8 9 9 10 11 12 13 13 7 5 5 5 6 3 5 2 1 2 2 4 4 2 3 5 6 1 3 6 4 3 1 7 2 5 17 13 19 19
9 9 8 8 8 8 8 8 8 9 10 11 13 13 13 2 4 5 6 5 6 3 0 3 5 5 5 5 4 2 3 4 5 3 1 2 3 4 1 5 7 7 16 18 17
9 9 9 9 8 8 8 8 8 9 10 11 12 13 3 6 5 8 8 6 1 2 5 4 7 3 4 4 2 4 2 2 2 2 4 3 3 3 1 4 6 8 10 17 14
9 9 9 10 9 9 9 10 9 9 9 10 11 12 3 2 5 6 8 9 5 4 5 5 2 1 1 3 4 2 2 2 2 2 2 3 2 3 3 2 4 4 9 10 16
9 9 9 9 10 10 10 10 9 9 9 8 7 3 2 7 5 8 4 4 3 3 4 1 4 6 0 3 4 1 6 8 3 2 2 5 3 4 8 4 6 10 9 9 15
9 9 9 9 9 10 11 11 10 10 8 5 5 1 4 5 3 8 2 4 4 4 2 4 3 3 3 3 8 6 7 6 7 8 6 6 7 6 7 6 7 7 10 9 9
9 8 8 9 9 11 13 13 11 9 8 3 1 4 8 10 2 5 2 3 6 4 6 2 4 4 7 4 6 8 1 3 9 7 5 6 4 6 7 10 11 10 8 8 8
10 8 7 7 8 11 15 7 5 5 2 3 1 3 5 3 4 2 1 3 4 6 8 10 7 5 5 6 2 2 2 2 3 8 8 7 7 8 18 16 12 13 11 10 10
12 9 7 6 8 9 9 5 7 6 4 4 2 3 5 6 3 3 3 4 5 9 6 5 9 5 10 4 2 3 3 1 2 0 1 4 4 10 7 13 15 14 15 13 9
14 11 8 7 7 7 2 3 4 4 6 5 5 5 6 2 3 5 4 4 5 4 6 8 4 3 7 2 4 4 3 3 4 4 2 4 5 5 7 7 10 14 14 15 12
14 11 9 8 7 2 0 5 3 1 3 7 4 4 5 6 2 1 3 2 4 5 5 3 4 4 2 2 4 2 3 3 5 4 3 4 4 3 3 5 9 12 10 13 14
15 12 11 12 3 3 5 5 5 4 5 6 2 4 3 4 3 1 2 4 4 1 2 1 7 7 8 6 1 2 3 2 2 4 1 4 5 2 1 6 8 9 10 10 11
15 12 12 2 2 2 4 8 1 6 4 1 2 0 2 7 5 3 2 4 2 2 6 2 6 6 10 3 3 3 3 4 1 4 3 5 4 5 4 6 7 7 7 8 8
15 11 8 0 2 5 7 4 5 7 2 4 1 1 3 0 1 2 3 7 2 5 4 4 3 5 1 2 3 5 4 6 5 4 4 3 4 5 1 2 3 3 3 4 6
17 10 2 0 3 3 4 6 6 4 4 6 2 1 1 2 3 3 4 6 2 3 5 5 2 3 5 6 6 9 7 5 7 7 5 4 2 6 5 2 2 2 4 4 3
21 5 5 4 1 4 5 7 5 2 3 2 3 4 5 6 4 3 4 4 7 4 3 3 7 5 6 2 4 4 5 6 3 2 7 7 5 1 3 6 6 4 3 5 5
17 3 2 3 3 4 7 6 2 1 3 4 3 7 6 6 5 5 5 3 1 3 6 3 5 3 7 4 4 6 4 2 2 2 2 4 3 4 2 4 6 6 7 8 7
3 3 4 3 4 6 6 3 0 2 2 4 3 2 4 6 5 5 2 1 1 3 3 5 2 4 5 4 6 6 2 6 5 3 5 5 5 4 7 10 7 7 5 7 8
4 4 4 4 5 6 4 4 3 4 2 3 1 3 2 2 2 3 2 1 2 4 7 4 4 7 4 5 2 6 5 5 3 4 4 4 6 2 1 3 6 7 8 8 8
2 3 4 3 5 1 2 3 2 2 6 5 5 3 2 1 2 2 1 3 2 3 3 2 5 2 6 3 5 5 1 4 5 7 4 3 9 3 3 2 4 7 8 9 8
2 3 4 5 2 3 5 2 3 2 3 2 2 2 2 2 3 3 3 4 5 1 6 6 2 3 8 7 4 4 3 3 3 3 5 4 7 5 1 5 6 8 9 9 9
3 3 6 6 1 3 3 2 2 4 3 6 3 6 3 3 5 2 2 3 6 3 9 8 3 8 7 8 3 4 5 4 4 3 3 6 9 9 8 8 10 12 11 11 13
4 1 3 3 4 3 1 2 2 2 2 4 5 4 2 2 5 1 0 4 4 4 4 5 4 4 5 6 3 7 6 4 6 5 5 6 8 10 6 10 12 11 10 16 17
3 3 5 1 3 2 2 1 4 2 2 1 6 3 2 5 6 4 2 3 5 2 3 2 2 4 3 5 5 6 5 5 3 2 6 8 12 1 7 8 11 15 17 18 18
2 2 4 3 4 3 2 3 5 5 4 5 7 4 2 5 7 9 6 4 4 7 3 2 4 3 5 3 5 7 5 3 3 3 5 6 5 5 15 14 13 16 18 18 18
Wind_Direction
349 348 346 342 337 341 346 344 342 340 332 320 317 315 314 317 309 169 297 220 186 178 260 314 25 351 71 77 142 118 58 21 338 57 289 333 141 296 8 89 23 33 135 149 152
347 346 346 340 340 341 343 342 340 338 329 321 318 315 316 327 17 333 244 247 243 220 336 12 338 3 23 343 76 89 95 203 223 166 134 8 88 8 69 32 34 92 63 121 147
344 345 344 340 339 339 339 341 340 334 326 324 319 318 319 322 27 275 264 248 214 170 165 192 273 76 34 12 320 141 172 187 227 197 186 145 36 76 125 319 215 135 130 145 161
341 341 339 336 335 336 337 337 336 333 327 327 322 322 326 4 130 272 281 320 321 198 14 32 20 36 33 20 337 73 110 162 197 218 78 96 103 71 49 221 178 162 141 152 168
338 336 334 332 329 331 333 332 332 330 325 325 324 328 20 17 267 264 309 333 128 131 59 55 37 37 11 329 1 66 343 107 166 186 156 126 55 112 143 110 143 166 142 158 155
335 332 331 329 328 328 331 328 325 327 324 324 325 319 39 50 260 306 344 340 357 21 22 62 359 221 65 337 86 281 249 343 111 261 292 118 54 6 153 222 197 238 195 171 165
335 330 328 327 327 326 323 316 311 315 310 315 329 7 70 228 329 334 309 288 297 19 340 214 149 51 157 348 306 159 14 359 33 336 205 122 9 252 61 47 312 265 243 204 159
336 328 325 326 328 324 315 307 301 301 299 302 336 66 257 262 318 316 281 311 339 313 239 303 130 118 26 320 14 30 50 15 314 354 3 90 251 4 10 21 325 250 238 229 209
344 330 326 329 328 320 309 300 292 285 256 206 20 71 290 313 303 279 186 319 314 340 334 306 62 62 16 58 14 9 49 358 332 15 351 55 341 334 343 6 345 332 281 298 309
350 341 333 329 323 320 307 276 295 308 88 173 5 32 314 296 266 295 315 16 353 344 11 32 40 40 28 58 243 256 23 342 346 328 16 25 347 317 23 27 359 349 314 288 262
355 348 344 328 320 336 354 3 20 352 41 223 213 209 271 298 330 351 342 19 33 48 16 8 64 10 303 248 186 108 90 107 253 294 146 43 294 15 13 30 18 13 357 337 281
351 347 340 331 321 332 20 64 192 167 313 247 232 266 266 189 292 329 68 59 51 37 351 20 83 344 323 60 120 72 93 342 297 323 96 8 57 98 16 15 28 25 20 16 35
345 339 332 323 313 341 78 249 112 66 80 299 211 187 210 133 198 71 91 99 74 30 33 126 274 339 63 348 27 95 118 229 224 328 2 46 28 34 15 28 31 26 39 50 47
342 337 331 319 56 293 292 295 345 130 64 283 265 273 145 121 11 248 100 131 36 22 38 29 330 4 48 59 23 38 327 268 247 74 283 45 266 298 330 3 38 20 25 16 46
338 334 333 278 197 53 288 321 18 59 56 277 222 152 108 134 157 255 86 38 132 11 80 345 26 35 49 332 8 256 1 333 15 98 87 347 76 251 2 9 5 22 20 20 26
336 325 329 108 34 246 313 341 54 46 3 5 39 187 97 48 243 95 70 43 67 83 16 156 182 55 276 355 24 304 341 40 48 72 45 274 103 290 303 357 347 47 57 31 13
334 316 239 45 238 316 355 46 50 98 335 324 340 303 197 292 214 127 81 25 42 61 2 347 18 352 27 22 350 38 46 354 6 11 224 263 338 245 355 47 12 102 54 46 1
330 310 210 224 28 17 49 52 83 359 348 333 343 37 71 340 17 94 84 49 17 69 74 74 327 27 334 67 253 15 100 138 291 227 251 317 252 93 77 26 357 25 37 29 7
320 340 344 275 130 73 70 59 187 357 299 355 34 52 357 347 56 68 52 90 19 25 112 100 289 346 39 348 69 324 27 219 142 341 41 270 102 276 2 12 6 337 18 359 348
30 14 280 336 108 62 74 188 36 338 19 54 87 56 29 347 37 38 63 307 93 41 122 202 302 18 313 59 17 91 268 22 8 356 305 293 289 256 344 355 343 6 19 348 348
41 46 289 3 60 48 126 204 112 13 74 55 132 91 48 10 50 27 12 324 112 36 59 93 111 296 18 51 324 3 19 40 111 149 218 297 258 204 272 358 345 342 335 322 310
57 50 307 37 49 8 132 185 122 12 40 44 90 90 132 37 28 77 79 57 68 124 91 67 129 239 258 251 253 137 227 115 114 279 237 216 274 154 145 4 323 308 300 293 285
66 267 312 82 101 333 314 41 63 77 24 65 81 98 70 92 92 60 47 6 12 157 167 177 9 13 352 354 339 59 274 201 143 71 222 161 262 176 269 313 292 291 290 284 285
61 20 331 41 80 117 25 1 102 41 73 75 52 62 65 60 19 109 43 14 359 73 79 88 133 158 190 220 165 277 256 276 162 131 235 239 286 299 316 316 316 311 290 291 297
35 287 181 316 340 349 25 305 165 140 61 47 35 71 120 41 356 83 353 346 17 16 56 98 197 201 245 253 244 248 269 219 222 212 187 262 261 284 303 305 302 295 285 303 305
69 39 356 317 304 327 39 207 153 130 112 56 120 164 83 160 196 240 176 186 214 28 85 20 251 170 277 265 277 281 229 232 233 212 267 265 284 38 294 285 299 307 303 304 295
326 358 105 297 344 72 255 199 193 124 356 143 147 128 187 229 210 221 204 208 198 165 170 140 128 88 262 337 328 302 210 203 278 267 247 273 270 300 313 309 305 303 299 292 296